When you browse on this site, cookies collect data to enhance your experience and personalize the content and advertising you see.
Visit our Privacy Policy to learn more. By continuing to use the site, you agree to this use of cookies and data.
  • In Latvia
  • List of Countries
  • For 7 days
  • Water Temperature
  • Weather Map
  • Weather Widgets
  • user-avatar
    Login

    Hourly Weather Klagenfurt

    Today, 2 April, Thursday

    Time Temperature Precipitation Wind Pressure Humidity
    00:00 -3°C° 0 mm 1 mps 688 mmHg 65%
    01:00 -4°C° 0 mm 0 mps 688 mmHg 66%
    02:00 -4°C° 0 mm 0 mps 687 mmHg 66%
    03:00 -4°C° 0 mm 0 mps 687 mmHg 67%
    04:00 -4°C° 0 mm 0 mps 686 mmHg 67%
    05:00 -3°C° 0 mm 0 mps 686 mmHg 64%
    06:00 -3°C° 0 mm 0 mps 687 mmHg 61%
    07:00 -1°C° 0 mm 0 mps 687 mmHg 57%
    08:00 +1°C° 0 mm 0 mps 687 mmHg 52%
    09:00 +4°C° 0 mm 1 mps 687 mmHg 47%
    10:00 +6°C° 0 mm 1 mps 687 mmHg 42%
    11:00 +7°C° 0 mm 1 mps 687 mmHg 41%
    12:00 +8°C° 0 mm 1 mps 687 mmHg 41%
    13:00 +10°C° 0 mm 1 mps 687 mmHg 40%
    14:00 +9°C° 0 mm 1 mps 686 mmHg 42%
    15:00 +9°C° 0 mm 1 mps 686 mmHg 44%
    16:00 +9°C° 0 mm 1 mps 685 mmHg 46%
    17:00 +6°C° 0 mm 1 mps 685 mmHg 54%
    18:00 +4°C° 0 mm 1 mps 684 mmHg 62%
    19:00 +1°C° 0 mm 1 mps 684 mmHg 70%
    20:00 +1°C° 0 mm 1 mps 684 mmHg 71%
    21:00 0°C° 0 mm 1 mps 685 mmHg 72%
    22:00 0°C° 0 mm 1 mps 685 mmHg 73%
    23:00 0°C° 0 mm 1 mps 685 mmHg 74%

    Tomorrow, 3 April, Friday

    Time Temperature Precipitation Wind Pressure Humidity
    00:00 0°C° 0 mm 1 mps 685 mmHg 75%
    01:00 0°C° 0 mm 1 mps 685 mmHg 76%
    02:00 0°C° 0 mm 1 mps 685 mmHg 77%
    03:00 -2°C° 0 mm 0 mps 685 mmHg 78%
    04:00 -2°C° 0 mm 0 mps 685 mmHg 79%
    05:00 -1°C° 0 mm 0 mps 685 mmHg 77%
    06:00 0°C° 0 mm 0 mps 686 mmHg 74%
    07:00 +1°C° 0 mm 0 mps 686 mmHg 71%
    08:00 +4°C° 0 mm 0 mps 687 mmHg 65%
    09:00 +7°C° 0 mm 0 mps 687 mmHg 58%
    10:00 +10°C° 0 mm 1 mps 688 mmHg 51%
    11:00 +11°C° 0 mm 1 mps 688 mmHg 49%
    12:00 +12°C° 0 mm 1 mps 688 mmHg 47%
    13:00 +12°C° 0 mm 1 mps 688 mmHg 44%
    14:00 +12°C° 0 mm 1 mps 688 mmHg 46%
    15:00 +12°C° 0 mm 1 mps 687 mmHg 48%
    16:00 +11°C° 0 mm 1 mps 687 mmHg 50%
    17:00 +9°C° 0 mm 1 mps 687 mmHg 59%
    18:00 +7°C° 0 mm 1 mps 687 mmHg 67%
    19:00 +5°C° 0 mm 1 mps 688 mmHg 76%
    20:00 +4°C° 0 mm 1 mps 688 mmHg 78%
    21:00 +4°C° 0 mm 1 mps 689 mmHg 79%
    22:00 +4°C° 0 mm 1 mps 689 mmHg 80%
    23:00 +3°C° 0 mm 1 mps 689 mmHg 82%

    Day after tomorrow, 4 April, Saturday

    Time Temperature Precipitation Wind Pressure Humidity
    00:00 +3°C° 0 mm 1 mps 690 mmHg 84%
    01:00 +3°C° 0 mm 1 mps 690 mmHg 87%
    02:00 +3°C° 0 mm 1 mps 690 mmHg 88%
    03:00 +3°C° 0 mm 1 mps 690 mmHg 89%
    04:00 +3°C° 0 mm 1 mps 691 mmHg 91%
    05:00 +3°C° 0 mm 1 mps 691 mmHg 89%
    06:00 +4°C° 0 mm 1 mps 692 mmHg 87%
    07:00 +4°C° 0 mm 1 mps 692 mmHg 86%
    08:00 +6°C° 0 mm 1 mps 693 mmHg 78%
    09:00 +8°C° 0 mm 1 mps 693 mmHg 71%
    10:00 +10°C° 0 mm 1 mps 693 mmHg 63%
    11:00 +10°C° 0 mm 1 mps 694 mmHg 61%
    12:00 +11°C° 0 mm 1 mps 694 mmHg 58%
    13:00 +12°C° 0 mm 1 mps 694 mmHg 56%
    14:00 +11°C° 0 mm 1 mps 694 mmHg 57%
    15:00 +11°C° 0 mm 1 mps 693 mmHg 57%
    16:00 +11°C° 0 mm 1 mps 693 mmHg 58%
    17:00 +9°C° 0 mm 1 mps 693 mmHg 66%
    18:00 +7°C° 0 mm 1 mps 693 mmHg 74%
    19:00 +5°C° 0 mm 1 mps 693 mmHg 82%
    20:00 +5°C° 0 mm 1 mps 694 mmHg 83%
    21:00 +4°C° 0 mm 1 mps 694 mmHg 85%
    22:00 +3°C° 0 mm 0 mps 695 mmHg 86%
    23:00 +2°C° 0 mm 0 mps 695 mmHg 88%

    5 April, Sunday

    Time Temperature Precipitation Wind Pressure Humidity
    00:00 +2°C° 0 mm 0 mps 695 mmHg 89%
    01:00 +1°C° 0 mm 0 mps 695 mmHg 90%
    02:00 +1°C° 0 mm 0 mps 695 mmHg 91%
    03:00 +2°C° 0 mm 1 mps 695 mmHg 91%
    04:00 +1°C° 0 mm 1 mps 695 mmHg 91%
    05:00 +2°C° 0 mm 1 mps 695 mmHg 88%
    06:00 +3°C° 0 mm 1 mps 695 mmHg 85%
    07:00 +3°C° 0 mm 1 mps 696 mmHg 82%
    08:00 +5°C° 0 mm 1 mps 696 mmHg 73%
    09:00 +7°C° 0 mm 1 mps 696 mmHg 64%
    10:00 +8°C° 0 mm 2 mps 697 mmHg 55%
    11:00 +9°C° 0 mm 2 mps 697 mmHg 52%
    12:00 +12°C° 0 mm 2 mps 696 mmHg 49%
    13:00 +13°C° 0 mm 2 mps 696 mmHg 45%
    14:00 +12°C° 0 mm 2 mps 696 mmHg 45%
    15:00 +12°C° 0 mm 2 mps 696 mmHg 46%
    16:00 +12°C° 0 mm 2 mps 695 mmHg 46%
    17:00 +10°C° 0 mm 1 mps 695 mmHg 54%
    18:00 +7°C° 0 mm 1 mps 695 mmHg 62%
    19:00 +5°C° 0 mm 1 mps 695 mmHg 70%
    20:00 +4°C° 0 mm 1 mps 695 mmHg 70%
    21:00 +4°C° 0 mm 1 mps 695 mmHg 71%
    22:00 +3°C° 0 mm 1 mps 696 mmHg 71%
    23:00 +3°C° 0 mm 1 mps 696 mmHg 73%

    6 April, Monday

    Time Temperature Precipitation Wind Pressure Humidity
    00:00 +3°C° 0 mm 1 mps 695 mmHg 74%
    01:00 +3°C° 0 mm 1 mps 695 mmHg 75%
    02:00 +3°C° 0 mm 1 mps 695 mmHg 78%
    03:00 +2°C° 0 mm 1 mps 695 mmHg 81%
    04:00 +2°C° 0 mm 1 mps 695 mmHg 84%
    05:00 +3°C° 0 mm 1 mps 695 mmHg 81%
    06:00 +4°C° 0 mm 1 mps 696 mmHg 78%
    07:00 +5°C° 0 mm 1 mps 696 mmHg 75%
    08:00 +7°C° 0 mm 1 mps 696 mmHg 67%
    09:00 +8°C° 0 mm 2 mps 697 mmHg 60%
    10:00 +10°C° 0 mm 2 mps 697 mmHg 52%
    11:00 +12°C° 0 mm 2 mps 697 mmHg 48%
    12:00 +13°C° 0 mm 2 mps 697 mmHg 44%
    13:00 +14°C° 0 mm 2 mps 697 mmHg 40%
    14:00 +13°C° 0 mm 2 mps 697 mmHg 40%
    15:00 +13°C° 0 mm 2 mps 696 mmHg 39%
    16:00 +13°C° 0 mm 2 mps 696 mmHg 38%
    17:00 +10°C° 0 mm 2 mps 696 mmHg 46%
    18:00 +8°C° 0 mm 1 mps 696 mmHg 54%
    19:00 +6°C° 0 mm 1 mps 696 mmHg 62%
    20:00 +5°C° 0 mm 1 mps 696 mmHg 64%
    21:00 +4°C° 0 mm 1 mps 696 mmHg 66%
    22:00 +3°C° 0 mm 1 mps 697 mmHg 68%
    23:00 +3°C° 0 mm 1 mps 697 mmHg 70%

    7 April, Tuesday

    Time Temperature Precipitation Wind Pressure Humidity
    00:00 +3°C° 0 mm 1 mps 697 mmHg 72%
    01:00 +2°C° 0 mm 1 mps 697 mmHg 74%
    02:00 +2°C° 0 mm 1 mps 697 mmHg 76%
    03:00 +1°C° 0 mm 1 mps 697 mmHg 78%
    04:00 +1°C° 0 mm 1 mps 697 mmHg 80%
    05:00 +2°C° 0 mm 1 mps 697 mmHg 76%
    06:00 +3°C° 0 mm 1 mps 697 mmHg 73%
    07:00 +4°C° 0 mm 1 mps 698 mmHg 69%
    08:00 +6°C° 0 mm 1 mps 698 mmHg 61%
    09:00 +9°C° 0 mm 1 mps 698 mmHg 53%
    10:00 +11°C° 0 mm 1 mps 699 mmHg 45%
    11:00 +12°C° 0 mm 2 mps 699 mmHg 42%
    12:00 +13°C° 0 mm 2 mps 699 mmHg 39%
    13:00 +14°C° 0 mm 2 mps 699 mmHg 35%
    14:00 +14°C° 0 mm 2 mps 699 mmHg 37%
    15:00 +14°C° 0 mm 2 mps 699 mmHg 39%
    16:00 +14°C° 0 mm 2 mps 698 mmHg 41%
    17:00 +10°C° 0 mm 2 mps 698 mmHg 50%
    18:00 +8°C° 0 mm 1 mps 698 mmHg 59%
    19:00 +6°C° 0 mm 1 mps 697 mmHg 69%
    20:00 +5°C° 0 mm 1 mps 698 mmHg 70%
    21:00 +4°C° 0 mm 1 mps 698 mmHg 71%
    22:00 +3°C° 0 mm 1 mps 698 mmHg 73%
    23:00 +3°C° 0 mm 1 mps 698 mmHg 73%
    Show more